Location: Unspecified
(0.0000°N, 0.0000°E)
Time: 11:52:10
(UTC+00:00)

Tiros 1 despin weight - All Passes

Search period start: 07 October 2022 00:00
Search period end: 17 October 2022 00:00
Orbit: 591 x 638 km, 48.2° (Epoch: 07 October)

Date Brightness Start Highest point End Pass type
(mag) Time Alt. Az. Time Alt. Az. Time Alt. Az.
07 Oct - 00:35:58 10° WSW 00:38:06 13° SW 00:40:15 10° SSW night (unlit)
07 Oct - 11:00:02 10° SW 11:04:25 81° SE 11:08:48 10° NE daylight
07 Oct - 21:29:48 10° NE 21:30:37 10° NE 21:31:27 10° ENE night (unlit)
07 Oct - 23:07:25 10° NW 23:12:00 61° SW 23:16:37 10° SSE night (unlit)
08 Oct - 09:35:45 10° SSE 09:38:23 16° SE 09:41:01 10° E daylight
08 Oct - 11:15:41 10° WSW 11:19:41 35° NW 11:23:41 10° NNE daylight
08 Oct - 21:42:04 10° N 21:45:58 26° NE 21:49:52 10° ESE night (unlit)
08 Oct - 23:23:34 10° WNW 23:27:17 23° SW 23:31:01 10° S night (unlit)
09 Oct - 09:49:33 10° SSW 09:53:42 40° SE 09:57:49 10° ENE daylight
09 Oct - 11:32:48 10° W 11:34:59 14° NW 11:37:11 10° NNW daylight
09 Oct - 21:56:37 10° NNW 22:01:14 70° NE 22:05:52 10° SE night (unlit)
10 Oct - 10:04:34 10° SW 10:08:57 70° NW 10:13:18 10° NNE daylight
10 Oct - 20:32:35 10° NNE 20:35:09 15° NE 20:37:41 10° E night (unlit)
10 Oct - 22:12:04 10° WNW 22:16:28 43° SW 22:20:54 10° SSE night (unlit)
11 Oct - 08:39:31 10° S 08:42:55 21° SE 08:46:17 10° E daylight
11 Oct - 10:20:34 10° WSW 10:24:11 25° NW 10:27:49 10° N daylight
11 Oct - 20:46:10 10° NNW 20:50:25 36° NE 20:54:42 10° ESE night (unlit)
11 Oct - 22:28:41 10° W 22:31:45 17° SW 22:34:51 10° S night (unlit)
12 Oct - 08:53:50 10° SSW 08:58:10 58° SE 09:02:28 10° NE daylight
12 Oct - 21:01:01 10° NW 21:05:39 84° SW 21:10:18 10° SE night (unlit)
13 Oct - 07:30:32 10° SSE 07:32:03 12° SE 07:33:33 10° ESE daylight
13 Oct - 09:09:08 10° SW 09:13:23 48° NW 09:17:37 10° NNE daylight
13 Oct - 19:36:13 10° N 19:39:34 20° NE 19:42:56 10° E visible
13 Oct - 21:16:47 10° WNW 21:20:53 31° SW 21:25:01 10° SSE night (unlit)
14 Oct - 07:43:28 10° S 07:47:21 30° SE 07:51:11 10° ENE daylight
14 Oct - 09:25:33 10° W 09:28:37 18° NW 09:31:40 10° N daylight
14 Oct - 19:50:20 10° NNW 19:54:47 50° NE 19:59:18 10° SE visible
14 Oct - 21:34:09 10° WSW 21:36:10 13° SW 21:38:12 10° SSW night (unlit)
15 Oct - 07:58:07 10° SW 08:02:34 83° SE 08:06:57 10° NE daylight
15 Oct - 18:27:47 10° NE 18:28:38 10° NE 18:29:28 10° ENE visible
15 Oct - 20:05:27 10° NW 20:09:59 59° SW 20:14:35 10° SSE visible
16 Oct - 06:33:40 10° S 06:36:27 16° SE 06:39:12 10° E daylight
16 Oct - 08:13:44 10° WSW 08:17:46 34° NW 08:21:44 10° NNE daylight
16 Oct - 18:40:03 10° N 18:43:54 27° NE 18:47:48 10° ESE visible
16 Oct - 20:21:34 10° WNW 20:25:13 23° SW 20:28:54 10° S visible
